Wind_Speed
34 38 36 39 35 34 35 36 39 41 42 42 42 41 40 39 39 34 30 30 36 36 37 34 33 34 35 36 39 36 31 30 35 38 37 35 35 37 39 39 39 41 39
44 33 40 37 34 34 37 38 40 41 41 41 41 41 40 39 37 35 31 30 28 28 29 27 29 32 36 38 33 28 31 32 35 39 38 40 39 38 40 40 39 34 36
38 38 39 36 34 35 37 39 41 41 41 42 42 41 40 38 35 31 29 28 27 28 26 28 33 33 36 35 35 37 37 38 38 39 41 41 44 39 37 33 32 30 30
36 36 34 34 33 35 38 40 41 41 42 43 42 40 37 36 33 30 29 29 29 27 27 30 31 30 33 35 37 37 38 39 39 41 42 41 38 34 31 30 28 26 26
35 33 32 33 34 37 40 40 40 41 42 42 40 40 41 36 34 29 29 29 28 28 28 27 28 31 33 35 34 34 34 37 38 39 38 34 32 30 27 26 27 27 24
33 32 31 33 36 38 39 40 41 42 41 40 38 38 36 35 34 28 28 25 26 27 26 26 28 31 34 34 34 33 32 35 35 35 32 31 30 28 25 24 26 27 27
32 30 31 34 37 38 38 39 40 41 41 38 38 36 34 27 31 29 27 24 24 23 24 26 28 30 32 31 32 34 34 34 32 30 30 29 29 27 29 30 27 26 26
30 29 32 36 37 37 38 40 41 40 40 37 38 35 32 26 30 27 25 24 21 21 23 26 27 28 31 29 31 32 33 31 28 27 28 29 29 28 27 24 20 20 21
30 29 34 36 38 38 40 40 39 38 38 36 34 34 31 29 27 24 24 20 20 20 22 24 26 26 28 29 31 32 31 27 25 25 26 25 23 23 21 16 11 15 18
26 31 35 37 38 40 41 38 36 36 37 35 33 31 30 28 28 22 19 20 20 20 21 23 26 24 26 28 30 31 29 25 24 23 21 20 21 20 15 13 12 16 18
28 33 35 37 39 41 40 38 35 35 35 32 31 30 28 26 23 19 20 20 20 20 21 22 23 25 26 27 28 29 27 24 22 21 20 19 18 16 14 14 14 16 15
31 34 36 39 39 38 37 36 35 35 34 31 30 28 26 24 22 21 20 20 20 20 21 21 22 23 24 25 26 27 25 22 22 20 19 19 18 14 10 9 10 11 12
33 36 38 37 36 36 36 37 36 33 31 30 29 27 25 24 24 23 20 20 20 20 21 21 21 22 22 24 25 25 24 21 20 20 19 18 18 13 9 8 7 6 8
36 38 37 37 35 34 34 35 35 33 31 29 27 25 24 23 23 24 23 20 19 20 21 20 20 21 21 22 24 25 25 23 21 19 18 17 18 14 11 9 7 6 4
37 37 38 38 36 34 34 33 32 31 31 29 27 26 26 24 24 23 23 23 22 22 21 20 20 20 21 22 22 23 24 23 22 20 18 17 17 17 11 10 9 10 7
37 37 37 37 36 35 35 35 32 30 30 27 26 26 25 24 24 24 23 23 23 23 22 22 20 20 20 20 21 22 22 23 22 20 18 17 16 16 14 10 11 11 14
37 37 37 36 36 35 35 34 33 31 31 29 26 25 24 24 24 23 23 23 23 23 22 21 20 20 19 19 20 20 21 21 21 20 19 17 15 14 15 12 10 13 13
40 40 39 38 37 36 34 34 34 33 32 30 28 27 23 23 23 23 22 23 23 23 22 22 21 20 19 19 19 19 19 20 20 20 19 17 16 13 13 12 11 9 12
42 43 40 39 37 35 34 34 34 34 33 31 29 27 26 24 23 23 22 23 22 22 22 22 21 20 20 19 18 18 19 19 19 19 18 17 15 14 12 12 11 10 7
44 44 42 41 37 37 37 36 35 34 33 31 30 27 25 27 25 23 21 21 21 21 21 22 23 22 21 20 19 18 18 18 17 17 17 17 15 13 12 10 10 9 8
45 44 41 39 39 40 38 35 34 34 33 32 30 27 25 25 26 23 22 22 22 21 21 22 23 22 22 21 19 19 19 18 17 17 16 16 15 13 12 10 9 8 7
45 44 42 41 38 39 36 34 33 33 31 30 28 26 26 26 25 24 22 21 21 21 21 22 22 23 22 22 21 20 20 18 17 16 15 14 14 13 11 10 9 7 6
43 44 47 43 37 37 36 34 32 31 29 27 25 25 26 26 26 26 24 22 21 21 22 22 21 22 23 22 22 22 21 19 17 16 15 14 13 13 11 10 9 8 7
40 44 48 39 31 34 33 33 30 29 28 27 25 25 25 25 24 24 24 25 25 24 24 23 22 22 24 24 22 22 22 20 18 16 15 14 13 12 11 9 8 7 7
38 38 31 30 32 31 32 32 29 26 24 25 25 25 25 26 26 26 25 25 24 25 26 26 25 25 25 24 24 23 22 20 20 18 16 15 13 12 11 10 8 7 7
33 36 31 33 30 30 32 31 29 29 28 26 27 26 26 26 26 26 26 26 26 25 24 26 27 26 25 24 23 22 21 20 20 20 18 16 15 13 12 11 10 9 9
Wind_Direction
279 282 299 295 307 308 310 310 313 314 315 315 313 313 315 315 312 307 303 287 283 284 284 284 280 281 292 294 297 300 293 292 289 290 287 287 283 283 282 280 280 280 283
289 288 295 305 306 308 310 313 314 313 314 314 315 316 316 316 315 311 304 300 293 293 289 284 279 289 295 297 299 294 291 291 291 292 294 292 290 290 288 287 287 284 279
290 299 303 306 307 308 310 312 312 313 314 314 315 316 317 315 313 307 301 298 295 294 293 285 289 293 294 297 299 302 298 295 291 291 295 295 297 297 295 294 292 288 289
296 301 302 303 305 306 309 311 313 313 314 315 316 316 317 315 312 307 301 297 294 294 294 294 293 295 298 301 302 299 298 297 297 295 295 296 297 298 298 300 297 290 287
301 301 300 302 305 308 311 313 313 315 316 316 319 318 319 317 311 309 304 301 298 296 295 294 298 301 302 303 301 301 300 299 300 298 298 297 298 301 298 294 293 296 291
295 297 298 302 307 310 312 314 316 316 315 316 317 316 314 311 310 307 304 297 293 293 293 299 304 306 308 311 308 306 307 306 304 301 299 298 299 298 301 297 291 290 291
292 295 300 306 309 311 314 316 315 315 314 317 314 314 312 303 305 305 301 295 292 291 297 304 309 310 310 314 311 313 311 309 305 301 299 299 300 295 289 285 279 278 279
289 295 302 308 311 314 315 315 315 313 312 314 312 314 312 302 303 300 297 293 290 296 303 308 313 314 313 317 316 314 315 311 305 301 300 299 297 297 294 290 289 295 291
290 307 310 311 313 315 315 315 313 311 311 312 312 314 313 304 302 296 293 288 292 299 305 310 315 319 318 320 321 322 321 316 311 309 308 305 304 302 296 284 293 303 303
308 311 311 312 314 315 314 314 310 309 308 313 314 313 309 302 299 296 290 289 294 300 307 313 316 324 323 325 327 327 325 323 320 318 314 308 309 307 298 280 272 285 287
318 313 312 312 314 315 314 313 311 309 310 311 314 311 306 302 299 295 291 290 293 300 308 314 318 327 327 328 329 331 330 327 328 327 326 320 318 309 297 270 266 273 276
315 310 311 314 315 313 313 313 310 309 309 312 312 308 305 302 299 294 290 289 292 299 306 312 319 326 328 330 332 333 335 331 329 331 333 330 324 311 304 281 276 277 280
309 311 315 315 313 313 312 310 309 308 307 309 309 308 307 304 301 297 291 288 288 295 301 310 319 324 327 330 334 337 339 336 334 336 332 333 331 309 291 280 277 262 293
314 315 315 315 314 312 310 309 309 308 307 307 306 306 306 303 301 298 295 288 284 289 296 304 315 324 326 330 337 341 343 343 338 335 337 334 335 320 289 283 266 231 312
316 316 315 315 314 311 312 312 309 306 304 305 304 304 304 303 299 296 292 291 289 289 294 301 310 318 327 333 335 339 342 343 342 338 335 336 337 336 305 276 259 232 234
316 314 313 313 312 311 313 313 309 304 301 299 297 299 299 300 297 293 290 287 285 285 290 296 305 313 322 330 333 336 340 341 342 341 338 334 338 340 334 289 261 247 238
313 314 312 311 311 312 314 311 308 305 304 301 295 294 295 296 296 294 289 285 283 281 283 289 297 305 314 323 329 333 336 339 340 341 340 338 333 340 337 329 281 255 250
314 314 314 312 311 310 310 309 308 306 304 301 297 293 292 294 295 295 292 285 283 280 279 285 291 298 306 314 322 328 331 334 338 340 341 338 338 334 339 336 330 287 256
311 313 313 312 310 308 307 306 305 304 302 300 297 291 290 289 293 294 292 290 284 280 280 281 285 291 298 304 311 319 325 329 333 337 340 341 337 338 333 338 337 335 299
310 311 312 312 311 313 308 304 303 304 301 299 296 292 287 288 291 294 292 291 288 284 281 281 282 287 291 296 303 309 315 322 328 332 337 340 340 337 336 330 336 336 332
307 308 309 309 306 312 311 303 301 301 300 298 295 290 285 282 286 292 295 295 295 291 285 282 282 282 284 287 294 302 306 311 320 326 329 334 338 339 335 332 325 331 334
303 304 307 308 307 311 307 302 299 297 296 295 293 288 286 284 282 283 289 290 292 291 290 286 282 281 281 281 285 294 298 300 307 316 322 326 331 335 335 333 329 320 316
302 298 303 305 304 311 308 302 300 298 296 293 290 287 285 287 286 283 283 287 289 293 291 289 285 281 280 280 279 287 292 291 295 303 312 317 321 326 332 330 329 328 326
290 290 300 296 301 309 307 301 298 295 292 290 288 286 286 286 286 286 285 282 280 283 288 294 287 280 280 278 276 278 286 283 285 289 297 305 310 314 320 327 329 325 321
293 298 290 297 305 303 303 300 295 290 286 286 288 287 285 282 280 281 283 284 282 279 280 283 288 290 280 274 274 273 279 277 275 277 282 289 296 300 303 308 316 320 320
286 288 285 306 304 301 297 294 292 290 287 288 290 288 287 283 282 281 280 279 279 279 281 281 282 285 285 279 275 274 273 273 272 268 270 275 281 286 288 289 292 296 302
Height
3109 3106 3104 3101 3096 3091 3088 3084 3078 3074 3068 3063 3057 3051 3045 3039 3034 3028 3024 3022 3017 3013 3010 3007 3004 3001 2998 2995 2991 2987 2984 2980 2973 2968 2965 2962 2958 2954 2950 2946 2942 2938 2935
3102 3100 3096 3093 3088 3084 3080 3075 3070 3065 3059 3054 3048 3042 3036 3030 3025 3020 3015 3011 3007 3004 3002 2999 2996 2994 2990 2986 2982 2979 2975 2972 2966 2958 2955 2950 2945 2941 2936 2932 2930 2927 2924
3097 3092 3088 3084 3080 3077 3073 3068 3063 3056 3051 3046 3040 3033 3028 3022 3016 3012 3008 3005 3002 2998 2994 2992 2989 2985 2981 2977 2973 2969 2964 2960 2955 2949 2943 2940 2934 2930 2926 2923 2920 2917 2915
3089 3085 3081 3078 3074 3070 3066 3060 3054 3048 3042 3036 3030 3024 3020 3014 3008 3004 3000 2996 2994 2991 2987 2984 2981 2977 2973 2969 2965 2960 2955 2950 2945 2940 2934 2929 2924 2921 2918 2914 2911 2910 2907
3081 3078 3074 3071 3067 3062 3057 3051 3045 3039 3033 3027 3021 3015 3008 3005 3001 2997 2994 2990 2986 2984 2981 2977 2974 2970 2966 2962 2957 2952 2947 2941 2936 2930 2925 2920 2917 2914 2911 2908 2905 2902 2900
3074 3070 3067 3064 3060 3054 3048 3042 3036 3030 3024 3018 3013 3008 3003 2997 2993 2989 2986 2983 2980 2977 2973 2971 2967 2963 2957 2952 2947 2943 2939 2932 2926 2921 2916 2913 2910 2907 2904 2902 2899 2896 2892
3065 3063 3060 3055 3050 3045 3039 3033 3027 3021 3016 3011 3005 3001 2996 2991 2987 2983 2979 2977 2973 2971 2968 2964 2961 2956 2951 2947 2941 2935 2930 2924 2918 2913 2909 2906 2902 2900 2896 2893 2891 2889 2886
3058 3055 3051 3046 3042 3036 3031 3025 3019 3013 3007 3003 2998 2993 2988 2983 2980 2976 2973 2970 2968 2965 2962 2959 2955 2950 2944 2940 2934 2929 2923 2917 2911 2907 2903 2899 2895 2892 2888 2886 2884 2882 2881
3049 3046 3043 3038 3033 3028 3023 3017 3012 3006 3000 2996 2991 2985 2980 2976 2973 2970 2967 2964 2962 2960 2957 2954 2949 2945 2939 2934 2928 2922 2916 2910 2905 2900 2896 2892 2889 2885 2882 2880 2880 2879 2876
3042 3039 3036 3031 3025 3020 3014 3009 3004 2998 2993 2989 2983 2978 2973 2969 2966 2964 2962 2959 2957 2955 2952 2948 2944 2940 2934 2928 2922 2916 2910 2904 2899 2895 2891 2887 2883 2879 2877 2877 2877 2875 2873
3035 3032 3028 3023 3017 3012 3006 3001 2996 2991 2986 2982 2977 2972 2967 2964 2960 2959 2957 2954 2952 2950 2947 2944 2939 2934 2929 2924 2918 2912 2906 2900 2895 2891 2886 2882 2879 2875 2873 2872 2872 2871 2870
3029 3026 3021 3014 3009 3004 2998 2994 2989 2984 2978 2975 2970 2966 2962 2958 2956 2953 2951 2949 2947 2945 2942 2939 2935 2930 2926 2920 2915 2909 2902 2897 2892 2887 2883 2879 2876 2873 2871 2869 2869 2868 2867
3023 3017 3012 3007 3002 2996 2991 2986 2981 2976 2971 2967 2964 2960 2956 2953 2950 2947 2946 2944 2942 2940 2937 2935 2930 2927 2922 2917 2912 2906 2900 2894 2889 2885 2881 2877 2873 2870 2869 2867 2866 2866 2865
3015 3009 3004 2999 2995 2990 2985 2979 2974 2969 2965 2961 2957 2954 2951 2947 2945 2942 2939 2938 2937 2935 2932 2930 2926 2923 2919 2914 2908 2902 2897 2892 2887 2883 2879 2875 2872 2868 2866 2865 2865 2864 2864
3007 3001 2996 2991 2986 2981 2976 2971 2966 2962 2959 2955 2951 2948 2945 2942 2939 2937 2934 2932 2930 2928 2927 2925 2922 2918 2914 2910 2905 2900 2895 2890 2886 2881 2877 2874 2870 2867 2864 2863 2863 2863 2862
2999 2994 2988 2983 2978 2973 2968 2963 2959 2956 2952 2949 2945 2942 2939 2936 2933 2931 2929 2926 2925 2923 2921 2919 2917 2914 2910 2906 2902 2898 2893 2889 2884 2880 2876 2872 2869 2866 2862 2860 2860 2860 2860
2991 2986 2980 2975 2970 2965 2959 2955 2951 2948 2944 2941 2938 2935 2933 2930 2927 2924 2922 2920 2918 2917 2915 2914 2912 2909 2907 2903 2900 2896 2891 2887 2883 2879 2874 2871 2868 2864 2862 2859 2857 2857 2857
2982 2977 2971 2967 2961 2957 2952 2947 2943 2939 2936 2933 2929 2927 2926 2923 2920 2918 2915 2913 2912 2910 2909 2908 2906 2904 2902 2899 2897 2893 2889 2885 2881 2877 2873 2870 2866 2863 2861 2858 2855 2853 2853
2972 2968 2963 2958 2953 2948 2943 2939 2935 2931 2927 2924 2922 2920 2917 2916 2914 2911 2909 2906 2905 2904 2902 2902 2901 2899 2897 2895 2893 2890 2887 2883 2879 2876 2872 2869 2865 2862 2859 2857 2855 2853 2851
2963 2958 2952 2947 2944 2939 2934 2930 2926 2922 2919 2916 2914 2912 2910 2907 2906 2904 2902 2900 2898 2897 2896 2895 2894 2893 2892 2890 2888 2886 2883 2880 2877 2874 2871 2867 2864 2861 2858 2856 2854 2852 2851
2954 2949 2944 2940 2935 2930 2925 2921 2917 2914 2911 2908 2905 2904 2903 2901 2899 2898 2895 2893 2891 2890 2889 2888 2887 2887 2886 2885 2883 2881 2879 2877 2874 2871 2869 2866 2863 2860 2858 2856 2854 2852 2851
2943 2939 2935 2930 2925 2921 2916 2912 2909 2905 2902 2900 2897 2896 2894 2893 2892 2891 2889 2887 2886 2884 2883 2882 2881 2880 2879 2879 2877 2876 2875 2873 2871 2869 2866 2864 2861 2859 2857 2855 2853 2852 2850
2932 2927 2922 2919 2915 2911 2906 2903 2900 2897 2894 2892 2890 2888 2887 2885 2883 2883 2882 2881 2879 2878 2876 2875 2874 2873 2872 2872 2871 2870 2869 2868 2867 2865 2863 2861 2859 2857 2856 2854 2852 2851 2850
2920 2916 2912 2908 2905 2901 2897 2894 2891 2889 2886 2884 2882 2880 2878 2877 2876 2875 2874 2873 2872 2871 2870 2868 2867 2866 2865 2865 2865 2864 2864 2863 2862 2861 2860 2858 2857 2855 2854 2852 2851 2850 2849
2907 2905 2901 2898 2894 2891 2888 2886 2883 2881 2878 2876 2873 2871 2870 2868 2867 2866 2865 2864 2863 2862 2862 2861 2860 2859 2858 2857 2857 2857 2857 2857 2856 2856 2855 2855 2853 2852 2851 2850 2850 2849 2848
2897 2894 2891 2888 2885 2881 2879 2876 2874 2871 2869 2867 2865 2863 2861 2860 2858 2857 2856 2855 2854 2854 2853 2852 2852 2851 2850 2849 2849 2849 2850 2850 2850 2850 2850 2850 2849 2849 2848 2847 2847 2847 2846